www.pogodaiklimat.ru

Погода и климат >> Архив погоды >> Хорватия >> Риека


ПОГОДА в Риеке

  • Прогноз погоды в Риеке
  • Монитор погоды в Риеке

АРХИВ ПОГОДЫ в Риеке

Время (UTC), дата Ветер
(напр.,м/с)
 
Видим.   Явления Облачность Т
(С)
Тd
(С)
f
(%)
Тe
(С)
Тes
(С)
Комфортность P
(гПа)
Po
(гПа)
Тmin
(С)
Tmax
(С)
R
(мм)
R24
(мм)
S
(см)
16 14.05 С 3 н/о н/о +9.1 +0.3 54 +7 +7 1018.7 1003.4
17 14.05 С 4 н/о н/о +8.9 +0.7 56 +6 +6 1018.5 1003.2
18 14.05 С 3 30 км 10/10 1000 м
[Cu Sc]
+9.1 0.0 53 +7 +7 1018.2 1003.0 +12.6 0.0
19 14.05 С 4 30 км слаб. дождь 10/8 1000 м
[Cu Sc As op]
+9.1 -0.3 52 +7 +7 1018.0 1002.8
20 14.05 В 2 30 км слаб. дождь 10/8 1000 м
[Cu Sc As op]
+9.2 +0.2 53 +8 +8 1017.9 1002.7
21 14.05 С 3 н/о н/о +9.2 -0.9 49 +7 +7 1017.0 1001.8
00 15.05 С 3 н/о н/о +9.1 -0.2 52 +7 +7 1015.1 999.9
03 15.05 СВ 4 35 км 10/10 600 м
[Frnb]
+9.3 +2.4 62 +7 +7 1013.1 998.0
04 15.05 СВ 4 35 км 9/6 600 м
[Cu Sc As op]
+9.6 +1.3 56 +7 +7 1013.0 997.9
05 15.05 СВ 4 30 км 9/8 1000 м
[Cu Sc Ci fib]
+10.0 +1.5 55 +8 +8 1013.2 998.1
06 15.05 Ю 2 35 км 9/8 1000 м
[Cu Sc Ci fib]
+10.2 +2.8 60 +9 +10 1013.3 998.2 +8.4 0.0
07 15.05 Ю 2 35 км 9/8 1000 м
[Cu Sc Ci sp]
+11.9 +4.0 58 +11 +12 1013.2 998.2
08 15.05 ЮВ 3 35 км 9/6 1000 м
[Cu Sc Ac cuf Ci fib]
+12.2 +3.1 54 +11 +13 1013.2 998.2
09 15.05 ЮВ 3 35 км 9/5 1000 м
[Cu Sc Ac cuf Ci sp]
+14.5 +3.9 49 +14 +18 1013.0 998.2
10 15.05 В 4 35 км 8/3 1000 м
[Cu Sc Ac cuf Ci fib]
+13.7 +4.1 52 +12 +18 1013.5 998.6
11 15.05 В 5 30 км 9/4 1000 м
[Cu Sc Ac cuf Ci sp]
+12.7 +5.5 62 +11 +14 1013.5 998.6
12 15.05 В 4 35 км 8/3 1000 м
[Cu hum Cs]
+14.6 +5.1 53 +14 +21 1012.7 997.9
13 15.05 СВ 4 35 км 9/1 1000 м
[Cu hum Cs]
+14.1 +4.9 54 +13 +20 1013.2 998.3
14 15.05 В 3 н/о н/о +15.3 +4.4 48 +15 +15 1013.5 998.6
15 15.05 В 4 н/о н/о +14.3 +4.1 50 +13 +13 1013.6 998.7
16 15.05 В 2 н/о н/о +14.0 +4.4 52 +14 +14 1013.6 998.7
18 15.05 ЮВ 2 40 км 9/1 1000 м
[Cu hum As op]
+11.9 +4.5 60 +11 +11 1013.6 998.6 +15.6
19 15.05 В 1 40 км 9/3 1000 м
[Cu hum As op]
+11.2 +5.7 69 +11 +11 1013.7 998.7
20 15.05 В 2 40 км 9/4 1000 м
[Cu Sc Ac As Ci sp]
+10.9 +4.2 63 +10 +10 1014.5 999.4
03 16.05 З 1 35 км 8/4 1000 м
[Sc diur, vesp Ac cuf]
+9.6 +4.7 71 +9 +9 1013.0 997.9
04 16.05 С 1 35 км 9/3 1000 м
[Sc diur, vesp Ac As]
+9.3 +4.6 72 +9 +9 1012.8 997.7
05 16.05 С 1 40 км 4/1 1000 м
[Cu hum Ac cuf]
+9.0 +4.5 73 +9 +10 1012.7 997.6
06 16.05 В 2 40 км 8/1 1000 м
[Cu hum Ac cuf]
+13.8 +4.7 54 +13 +15 1012.7 997.8 +8.4
07 16.05 В 3 40 км 3/1 1000 м
[Cu hum Ac cuf]
+14.2 +5.0 54 +13 +18 1012.8 997.9
08 16.05 В 4 40 км 3/0
[Ac cuf]
+14.8 +5.6 54 +14 +20 1012.5 997.7
09 16.05 В 4 40 км 3/1 1000 м
[Cu hum Ac cuf]
+15.8 +5.7 51 +15 +23 1012.2 997.4
10 16.05 В 5 40 км 3/1 1000 м
[Cu hum Ac cuf]
+16.3 +5.4 48 +15 +22 1011.9 997.2
11 16.05 В 4 40 км 3/1 1000 м
[Cu hum Ac cuf]
+16.8 +5.8 48 +16 +26 1011.9 997.2
12 16.05 В 4 40 км 3/3 1000 м
[Sc diur, vesp Ac cuf]
+17.4 +7.5 52 +17 +25 1011.8 997.1
13 16.05 В 3 40 км 3/3 1000 м
[Sc diur, vesp Ac cuf]
+18.0 +7.4 50 +18 +27 1011.3 996.7
14 16.05 В 4 н/о н/о +17.6 +5.3 44 +17 +17 1011.2 996.5
15 16.05 В 5 н/о н/о +17.0 +5.4 46 +16 +16 1011.2 996.4
16 16.05 В 5 н/о н/о +16.1 +5.4 49 +15 +15 1011.1 996.3
17 16.05 В 3 н/о н/о +14.9 +5.5 53 +14 +14 1011.3 996.4
18 16.05 СВ 2 40 км 3/3 1000 м
[Sc diur, vesp Ac cuf]
+13.6 +5.7 59 +13 +13 1011.2 996.3 +18.0
19 16.05 СВ 2 40 км ясно +11.5 +6.3 70 +11 +11 1011.8 996.8
20 16.05 СВ 2 40 км ясно +11.6 +5.3 65 +11 +11 1012.1 997.1
21 16.05 СВ 2 н/о н/о +11.0 +4.5 64 +10 +10 1012.7 997.6
00 17.05 С 2 н/о н/о +9.0 +4.1 71 +7 +7 1012.0 996.8
03 17.05 СВ 2 40 км ясно +9.5 +4.6 71 +8 +8 1011.2 996.1
04 17.05 СВ 1 40 км ясно +8.7 +4.1 73 +8 +8 1011.4 996.3
05 17.05 СВ 2 40 км ясно +10.7 +4.6 66 +10 +11 1011.2 996.2
06 17.05 В 1 40 км ясно +13.6 +5.4 58 +14 +18 1011.4 996.5 +7.9
07 17.05 ЮВ 2 40 км 1/1 1000 м
[Cu hum]
+15.2 +5.8 53 +15 +22 1011.4 996.6
08 17.05 Ю 2 40 км 1/1 1000 м
[Cu hum Cs]
+16.1 +6.1 51 +16 +26 1011.5 996.8
09 17.05 ЮЗ 2 40 км 1/1 1000 м
[Sc diur, vesp Cs]
+16.9 +6.2 49 +17 +31 опасность
простуды
1011.2 996.5
10 17.05 ЮЗ 2 40 км 3/1 1000 м
[Sc diur, vesp Cs]
+18.0 +6.7 48 +19 +33 опасность
простуды
1010.9 996.3
11 17.05 ЮЗ 2 40 км 5/1 1000 м
[Sc diur, vesp Cs]
+18.8 +7.4 47 +20 +35 опасность
простуды
1010.9 996.3
12 17.05 ЮЗ 2 40 км 4/1 1000 м
[Sc diur, vesp Cs]
+19.1 +7.5 47 +20 +35 опасность
простуды
1011.0 996.4
13 17.05 ЮВ 2 40 км 6/1 1000 м
[Sc diur, vesp Cs]
+18.6 +7.1 47 +19 +31 опасность
простуды
1010.9 996.3
14 17.05 Ю 2 н/о н/о +19.4 +5.9 41 +21 +21 комфорт 1010.4 995.8
15 17.05 ЮЗ 2 н/о н/о +19.8 +6.9 43 +21 +21 комфорт 1010.3 995.7
16 17.05 ЮЗ 2 н/о н/о +19.3 +6.1 42 +20 +20 1009.7 995.1
17 17.05 ЮЗ 2 н/о н/о +19.0 +6.9 45 +20 +20 1009.3 994.7
18 17.05 СЗ 1 35 км 8/0
[Cs]
+17.3 +8.7 57 +18 +18 1009.4 994.8 +19.5
19 17.05 С 1 35 км 3/0
[Cs]
+13.6 +8.3 70 +14 +14 1009.6 994.8
20 17.05 СВ 2 35 км 3/0
[Cs]
+13.9 +7.6 66 +13 +13 1009.8 995.0
21 17.05 С 2 н/о н/о +14.5 +7.1 61 +14 +14 1010.0 995.1
00 18.05 СВ 2 н/о н/о +14.3 +6.0 57 +14 +14 1009.2 994.3
03 18.05 СВ 2 20 км 9/0
[Ac As Cs]
+14.0 +7.9 67 +14 +14 1008.1 993.3
04 18.05 СВ 2 20 км 9/1 1000 м
[Sc Ac As Ci sp]
+14.3 +7.6 64 +14 +14 1008.1 993.3
05 18.05 СВ 1 20 км 9/4 1000 м
[Sc Ac cast Ci fib]
+14.4 +8.6 68 +15 +15 1008.2 993.4
06 18.05 ЮВ 1 25 км 9/8 1000 м
[Sc Ac cast]
+15.3 +9.8 70 +16 +17 1008.3 993.6 +12.8
07 18.05 СВ 3 20 км 9/6 1000 м
[Sc Ac cast]
+15.8 +9.8 67 +15 +17 1008.2 993.5
08 18.05 ЮВ 2 20 км 8/3 1000 м
[Sc diur, vesp Ac cast]
+19.2 +10.7 58 +21 +25 комфорт 1007.8 993.3
09 18.05 Ю 2 20 км 8/3 1000 м
[Cu Sc Ac cast]
+20.2 +10.3 53 +22 +28 комфорт 1007.1 992.6
10 18.05 ЮЗ 2 20 км 10/10 1000 м
[Sc]
+18.5 +10.6 60 +19 +19 1007.5 993.0
11 18.05 С 2 18 км в посл. час дождь 10/10 1000 м
[Frnb]
+17.6 +11.5 67 +18 +18 1007.6 993.0
12 18.05 З 1 6000 м дождь 10/3 300 м
[Frnb As op]
+16.0 +13.3 84 +17 +20 1008.0 993.3 2
13 18.05 СВ 2 5000 м дождь 10/4 300 м
[Frnb As op]
+14.0 +13.0 94 +13 +15 1008.6 993.8
14 18.05 С 2 н/о н/о +14.8 +13.1 90 +14 +14 1008.2 993.4
15 18.05 С 2 н/о н/о +14.9 +12.8 87 +15 +15 1007.7 992.9
16 18.05 СВ 2 н/о н/о +15.2 +13.1 87 +15 +15 1007.6 992.8
17 18.05 штиль 0 н/о н/о +15.4 +13.5 88 +15 +15 1007.9 993.1
18 18.05 С 2 18 км слаб. дождь 9/9 600 м
[Frnb]
+14.4 +13.4 94 +14 +14 1008.0 993.3 +20.6 18
19 18.05 ЮВ 1 18 км в посл. час дождь 9/5 1000 м
[Sc Ac As]
+14.1 +13.1 94 +14 +14 1008.4 993.6
20 18.05 С 2 20 км 9/4 1000 м
[Sc Ac As]
+13.7 +12.3 91 +13 +13 1008.3 993.5
21 18.05 С 2 н/о н/о +13.9 +12.4 91 +13 +13 1008.1 993.2
00 19.05 СВ 2 н/о н/о +12.9 +11.5 91 +12 +12 1007.3 992.4
03 19.05 С 1 25 км 9/4 1000 м
[Sc Ac As]
+13.0 +11.4 90 +13 +13 1006.1 991.3
04 19.05 С 1 20 км 9/5 1000 м
[Frnb Ac As]
+13.0 +11.2 89 +13 +13 1006.0 991.2
05 19.05 С 1 10 км в посл. час дождь 10/6 1000 м
[Frnb Ac As]
+13.3 +11.9 91 +13 +14 1006.0 991.2
06 19.05 СВ 1 10 км {дождь} 10/10 1000 м
[Frnb]
+14.4 +13.0 91 +15 +15 1005.7 991.0 +12.3 0.8
07 19.05 З 1 15 км 10/10 1000 м
[Cu Sc]
+14.5 +12.8 90 +15 +15 1005.7 991.0
08 19.05 З 1 15 км в посл. час дождь 10/10 1000 м
[Cu Sc]
+14.8 +12.6 87 +15 +15 1005.4 990.7
09 19.05 ЮЗ 2 20 км {дождь} 9/5 1000 м
[Cu Sc Ac cuf Ci]
+18.2 +13.4 74 +19 +23 1005.1 990.6
10 19.05 З 3 20 км 9/4 1000 м
[Cu Sc Ac cuf Ci]
+19.1 +13.2 69 +20 +26 1004.8 990.3
11 19.05 ЮЗ 2 20 км 10/6 1000 м
[Cu Sc Ac cuf]
+18.6 +12.6 68 +20 +22 1004.5 990.0
12 19.05 В 1 20 км {дождь} 10/6 1000 м
[Cu Sc Ac cuf]
+17.3 +11.1 67 +18 +21 1004.6 990.0 0.1
13 19.05 ЮЗ 1 20 км 10/6 1000 м
[Cu Sc Ac cuf]
+18.4 +12.4 68 +20 +22 1004.5 990.0
14 19.05 З 1 н/о н/о +18.7 +10.8 60 +20 +20 1004.5 989.9
15 19.05 З 2 н/о н/о +18.0 +10.7 62 +19 +19 1004.4 989.8
16 19.05 СЗ 1 н/о н/о +16.8 +11.8 72 +18 +18 1004.6 989.9
17 19.05 ЮЗ 1 н/о н/о +15.8 +12.2 79 +16 +16 1004.8 990.1
18 19.05 С 1 18 км слаб. дождь 9/6 1000 м
[Frnb Ac As]
+14.8 +13.1 90 +15 +15 1004.6 989.9 +19.2 0.7
19 19.05 В 1 18 км в посл. час дождь 10/8 1000 м
[Frnb Ac As]
+14.6 +12.7 88 +15 +15 1004.6 989.9
20 19.05 СВ 2 15 км слаб. дождь 10/10 1000 м
[Frnb]
+14.2 +12.7 91 +14 +14 1004.3 989.6
21 19.05 СВ 1 н/о н/о +14.1 +12.6 91 +14 +14 1004.8 990.0
00 20.05 Ю 1 н/о н/о +13.7 +12.8 94 +14 +14 1004.8 990.0
03 20.05 ЮВ 2 5000 м сильн. дождь 10/8 600 м
[Frnb As op]
+12.9 +12.4 97 +12 +12 1004.4 989.6
04 20.05 ЮВ 2 5000 м дождь 10/8 600 м
[Frnb As op]
+12.6 +12.1 97 +12 +12 1004.2 989.4
05 20.05 ЮВ 3 5000 м слаб. дождь 10/5 600 м
[Frnb As op]
+12.6 +12.1 97 +11 +11 1004.5 989.7
06 20.05 ЮВ 1 20 км в посл. час дождь 10/10 600 м
[Cu Sc]
+12.7 +12.2 97 +13 +13 1005.0 990.2 +12.1 26
07 20.05 Ю 2 20 км слаб. дождь 10/8 300 м
[Cu Sc As op]
+12.8 +12.3 97 +12 +12 1005.7 990.9
08 20.05 ЮВ 2 18 км слаб. дождь 10/6 300 м
[Frnb As op]
+13.0 +12.3 96 +12 +13 1006.1 991.3
09 20.05 ЮЗ 2 15 км слаб. дождь 10/8 300 м
[Frnb As op]
+13.2 +12.3 94 +12 +13 1006.7 991.9
10 20.05 ЮВ 2 15 км слаб. дождь 10/8 300 м
[Frnb As op]
+13.3 +12.4 94 +12 +13 1007.3 992.5
11 20.05 ЮВ 3 25 км слаб. дождь 10/8 600 м
[Cu Sc As op]
+12.9 +12.0 94 +11 +12 1008.1 993.3
12 20.05 ЮВ 2 20 км слаб. дождь 9/8 600 м
[Cu Sc As op]
+13.6 +12.6 94 +13 +15 1008.2 993.4 4
13 20.05 В 2 25 км в посл. час дождь 9/9 600 м
[Cu Sc]
+14.8 +13.3 91 +14 +16 1008.0 993.3
14 20.05 Ю 3 н/о н/о +16.4 +13.0 80 +16 +16 1008.0 993.3
15 20.05 ЮЗ 2 н/о н/о +16.6 +11.0 69 +17 +17 1007.9 993.2
16 20.05 ЮЗ 2 н/о н/о +15.9 +11.3 74 +16 +16 1008.1 993.3
17 20.05 ЮЗ 2 н/о н/о +15.1 +12.1 82 +15 +15 1008.2 993.4
18 20.05 ЮЗ 2 25 км 9/6 1000 м
[Cu Sc Ac trans]
+14.7 +12.8 88 +14 +14 1008.1 993.4 +16.6 4
19 20.05 З 1 25 км 10/10 600 м
[Cu Sc]
+14.3 +12.8 91 +15 +15 1008.1 993.4
20 20.05 СЗ 1 15 км слаб. дождь 10/0
[As op]
+14.0 +13.0 94 +14 +14 1008.9 994.1
21 20.05 СВ 2 н/о н/о +13.2 +11.8 91 +12 +12 1009.2 994.3
00 21.05 ЮВ 2 н/о н/о +13.7 +12.7 94 +13 +13 1008.8 993.9
03 21.05 Ю 3 20 км 10/10 1000 м
[Frnb]
+13.9 +13.0 94 +13 +13 1008.3 993.5
04 21.05 Ю 3 20 км 10/10 600 м
[Frnb]
+13.8 +12.9 94 +13 +13 1008.4 993.6
05 21.05 Ю 1 18 км слаб. дождь 10/6 600 м
[Frnb As op]
+13.8 +12.8 94 +14 +14 1008.9 994.1
06 21.05 Ю 1 15 км слаб. дождь 10/5 300 м
[Frnb As op]
+14.0 +13.3 96 +14 +15 1009.1 994.3 +13.0 3
07 21.05 ЮВ 2 18 км слаб. дождь 10/4 300 м
[Frnb As op]
+14.0 +13.3 96 +13 +14 1009.6 994.8
08 21.05 Ю 3 18 км слаб. дождь 10/6 300 м
[Frnb As op]
+14.2 +13.2 94 +13 +14 1010.0 995.2
09 21.05 Ю 2 18 км слаб. морось {дождь} 10/10 300 м
[St]
+14.2 +13.5 96 +14 +14 1010.5 995.7
10 21.05 ЮЗ 2 14 км слаб. морось 10/10 300 м
[St]
+14.1 +13.4 96 +13 +13 1010.8 996.0
11 21.05 ЮВ 1 14 км дождь {морось} 10/3 300 м
[Frnb As op]
+14.1 +13.4 96 +14 +17 1011.1 996.3
12 21.05 ЮВ 1 16 км слаб. дождь {морось} 10/5 300 м
[Frnb As op]
+14.1 +13.2 94 +14 +16 1011.8 997.0 5
13 21.05 ЮВ 2 18 км слаб. дождь 10/5 300 м
[Frnb As op]
+14.2 +13.0 92 +14 +15 1011.9 997.1
14 21.05 ЮВ 1 н/о н/о +14.4 +13.4 94 +15 +15 1012.4 997.5

 

Местоположение метеостанции Риека (Хорватия): широта 45.33 долгота 14.45 высота над уровнем моря 125 м.

В архиве по умолчанию представлена погода в Риеке за последнюю неделю. Архивные данные за месяц целиком и за предыдущие месяцы, начиная с января 2011 года, Вы можете получить, выбрав интересующий диапазон дат из раскрывающегося списка и нажав кнопку "Ввод!".


*Определитесь, кто Вы:
робот инопланетянин человек

Внимание! Время в таблицах - всемирное. Для получения местного времени необходимо прибавить поправку, которая равна 1 ч.

Смотрите также архив погоды в соседних городах и на ближайших метеорологических станциях:

Погода в Риека аэропорту (Хорватия) (16 км)
Погода в Парке (Хорватия) (33 км)
Погода в Пазине (Хорватия) (42 км)
Погода в Кочевье (Словения) (47 км)
Погода в Сене (Хорватия) (51 км)
Погода в Постойнской (Словения) (53 км)
Погода в Чрномеле (Словения) (61 км)
Погода в Огулине (Хорватия) (61 км)
Погода в Пуле (Хорватия) (63 км)
Погода в Триесте (Италия) (65 км)

Пояснения к столбцам:

Ветер - указаны скорость ветра в м/с - средняя за 10 мин, порывы в срок и между сроками (в фигурных скобках) и направление, откуда дует ветер: С - северный, СВ - северо-восточный, В - восточный, ЮВ - юго-восточный, Ю - южный, ЮЗ - юго-западный, З - западный, СЗ - северо-западный.
Видимость - горизонтальная дальность видимости в метрах или километрах. При видимости от 1 до 10 км при отсутствии осадков обычно наблюдается дымка, при ухудшении видимости до 1 км и менее - туман. В сухую погоду видимость может ухудшаться дымом, пылью или мглою.
Явления - указаны атмосферные явления, наблюдавшиеся в срок или в последний час перед сроком; фигурными скобками обозначены явления, наблюдавшиеся между сроками (за 1-3 часа до срока); квадратными скобками обозначены град или гололедные отложения с указанием их диаметра в мм.
Облачность - указаны через наклонную черту общая и нижняя облачность в баллах и высота нижней границы облаков в метрах; квадратными скобками обозначены формы облаков: Ci - перистые, Cs - перисто-слоистые, Cc - перисто-кучевые, Ac - высококучевые, As - высокослоистые, Sc - слоисто-кучевые, Ns - слоисто-дождевые, Cu - кучевые, Cb - кучево-дождевые. Подробнее классификацию облаков см. в Атласе облаков (PDF).
T - Температура воздуха - температура, измеренная на высоте 2 м над землей.
Td - Температура точки росы - температура, при понижении до которой содержащийся в воздухе водяной пар достигнет насыщения.
f - Относительная влажность воздуха - влажноcть воздуха, измеренная на высоте 2 м над землей.
Te - Эффективная температура - температура, которую ощущает одетый по сезону человек в тени. Характеристика душности погоды. При расчете учитывается влияние влажности воздуха и скорости ветра на теплоощущения человека.
Tes - Эффективная температура на солнце - температура, которую ощущает человек, с поправкой на солнечный нагрев. Характеристика знойности погоды. Зависит от высоты солнца над горизонтом, облачности и скорости ветра. Ночью, в пасмурную погоду, а также при ветре 12 м/с и более поправка равна нулю.
P - Атмосферное давление - приведенное к уровню моря атмосферное давление.
Po - Атмосферное давление - измеренное на уровне метеостанции атмосферное давление.
Tmin - Минимальная температура - минимум температуры воздуха на высоте 2 м над землей.
Tmax - Максимальная температура - максимум температуры воздуха на высоте 2 м над землей.
R - Количество осадков - Количество выпавших осадков за период времени, мм. При наведении курсора мыши на число - период времени, за который выпало указанное количество осадков.
R24 - Количество осадков - Количество выпавших осадков за 24 часа, мм.
S - Снежный покров - Высота снежного покрова, см. При наведении курсора мыши на число - состояние снежного покрова и степень покрытия местности в баллах.